RFF8210 LSGG-LSZH

Flight info

Callsign RFF8210
Flight time 0h 34m
Altitude 8000
Route SAPRE T544 WIL
Aircraft T154/M-SDGRWY/S

Departure

Time 2026-05-05 21:09
Airport Geneva International Airport (LSGG)

Arrival

Time 2026-05-05 21:43
Airport Zürich Airport (LSZH)
Time Latitude Longitude Altitude Speed Heading
2026-05-05 20:18 46.22906 6.10142 1423 ft 0 kts 136°
2026-05-05 20:54 46.22913 6.10133 1423 ft 2 kts 136°
2026-05-05 20:54 46.22923 6.10118 1423 ft 2 kts 136°
2026-05-05 20:54 46.22933 6.10104 1423 ft 0 kts 136°
2026-05-05 20:54 46.22939 6.10094 1423 ft 1 kts 105°
2026-05-05 20:55 46.22940 6.10076 1423 ft 1 kts 59°
2026-05-05 20:55 46.22934 6.10064 1423 ft 1 kts 50°
2026-05-05 20:55 46.22928 6.10055 1423 ft 1 kts 49°
2026-05-05 20:55 46.22923 6.10047 1423 ft 0 kts 46°
2026-05-05 20:56 46.22922 6.10045 1423 ft 0 kts 46°
2026-05-05 21:00 46.22930 6.10058 1423 ft 2 kts 47°
2026-05-05 21:00 46.22952 6.10092 1423 ft 6 kts 47°
2026-05-05 21:00 46.22990 6.10148 1423 ft 9 kts 45°
2026-05-05 21:00 46.23032 6.10171 1423 ft 7 kts 339°
2026-05-05 21:01 46.23080 6.10170 1423 ft 7 kts 34°
2026-05-05 21:01 46.23125 6.10232 1423 ft 10 kts 46°
2026-05-05 21:01 46.23182 6.10321 1423 ft 13 kts 47°
2026-05-05 21:01 46.23255 6.10430 1423 ft 16 kts 45°
2026-05-05 21:02 46.23344 6.10560 1423 ft 19 kts 45°
2026-05-05 21:02 46.23428 6.10672 1423 ft 16 kts 45°
2026-05-05 21:02 46.23506 6.10789 1423 ft 14 kts 45°
2026-05-05 21:02 46.23587 6.10907 1423 ft 18 kts 45°
2026-05-05 21:03 46.23682 6.11045 1423 ft 20 kts 45°
2026-05-05 21:03 46.23769 6.11174 1423 ft 18 kts 45°
2026-05-05 21:03 46.23859 6.11305 1423 ft 18 kts 45°
2026-05-05 21:03 46.23956 6.11448 1423 ft 21 kts 45°
2026-05-05 21:04 46.24063 6.11605 1423 ft 21 kts 46°
2026-05-05 21:04 46.24168 6.11759 1423 ft 17 kts 45°
2026-05-05 21:04 46.24244 6.11878 1423 ft 12 kts 58°
2026-05-05 21:04 46.24278 6.11967 1423 ft 7 kts 28°
2026-05-05 21:05 46.24328 6.11961 1423 ft 0 kts 324°
2026-05-05 21:05 46.24332 6.11955 1423 ft 1 kts 304°
2026-05-05 21:05 46.24332 6.11953 1423 ft 0 kts 303°
2026-05-05 21:06 46.24337 6.11943 1423 ft 2 kts 300°
2026-05-05 21:06 46.24343 6.11897 1423 ft 6 kts 265°
2026-05-05 21:07 46.24331 6.11822 1423 ft 9 kts 255°
2026-05-05 21:07 46.24310 6.11714 1423 ft 12 kts 250°
2026-05-05 21:07 46.24271 6.11584 1423 ft 15 kts 234°
2026-05-05 21:07 46.24244 6.11539 1423 ft 1 kts 226°
2026-05-05 21:08 46.24243 6.11537 1423 ft 0 kts 226°
2026-05-05 21:08 46.24231 6.11519 1423 ft 4 kts 226°
2026-05-05 21:08 46.24054 6.11259 1423 ft 83 kts 225°
2026-05-05 21:08 46.23416 6.10323 1495 ft 166 kts 225°
2026-05-05 21:09 46.22588 6.09083 2306 ft 187 kts 227°
2026-05-05 21:09 46.21608 6.07566 2945 ft 226 kts 227°
2026-05-05 21:09 46.20531 6.05880 3869 ft 231 kts 227°
2026-05-05 21:09 46.19393 6.04190 4594 ft 239 kts 226°
2026-05-05 21:10 46.18221 6.02481 5437 ft 244 kts 226°
2026-05-05 21:10 46.17015 6.00743 6262 ft 247 kts 226°
2026-05-05 21:10 46.16005 5.98777 7108 ft 243 kts 248°
2026-05-05 21:10 46.15624 5.96449 7802 ft 242 kts 273°
2026-05-05 21:11 46.15958 5.94153 8702 ft 233 kts 297°
2026-05-05 21:11 46.16908 5.92296 9388 ft 236 kts 320°
2026-05-05 21:11 46.18333 5.91185 10118 ft 240 kts 342°
2026-05-05 21:11 46.20008 5.91011 10789 ft 250 kts
2026-05-05 21:12 46.21662 5.91842 11456 ft 260 kts 27°
2026-05-05 21:12 46.23118 5.93508 11815 ft 284 kts 46°
2026-05-05 21:12 46.24253 5.96093 11687 ft 323 kts 58°
2026-05-05 21:12 46.25394 5.98945 12108 ft 335 kts 57°
2026-05-05 21:13 46.26600 6.01830 12818 ft 340 kts 56°
2026-05-05 21:13 46.27857 6.04734 13582 ft 343 kts 55°
2026-05-05 21:13 46.29142 6.07656 14278 ft 347 kts 54°
2026-05-05 21:13 46.30452 6.10610 14968 ft 351 kts 54°
2026-05-05 21:14 46.31794 6.13620 15073 ft 374 kts 54°
2026-05-05 21:14 46.33272 6.16932 15033 ft 400 kts 54°
2026-05-05 21:14 46.34810 6.20380 15042 ft 421 kts 54°
2026-05-05 21:14 46.36366 6.23881 15030 ft 412 kts 54°
2026-05-05 21:15 46.37934 6.27403 15039 ft 407 kts 54°
2026-05-05 21:15 46.39446 6.30807 15032 ft 403 kts 54°
2026-05-05 21:15 46.40975 6.34247 15040 ft 405 kts 54°
2026-05-05 21:15 46.42495 6.37673 15034 ft 407 kts 54°
2026-05-05 21:16 46.44027 6.41131 15041 ft 405 kts 54°
2026-05-05 21:16 46.45514 6.44492 15038 ft 406 kts 54°
2026-05-05 21:16 46.47055 6.47976 15038 ft 406 kts 54°
2026-05-05 21:16 46.48592 6.51458 15026 ft 406 kts 54°
2026-05-05 21:17 46.50103 6.54885 15011 ft 406 kts 54°
2026-05-05 21:17 46.51640 6.58373 14998 ft 406 kts 54°
2026-05-05 21:17 46.53159 6.61827 14984 ft 406 kts 54°
2026-05-05 21:17 46.54683 6.65295 14967 ft 406 kts 55°
2026-05-05 21:18 46.56198 6.68752 14949 ft 406 kts 55°
2026-05-05 21:18 46.57699 6.72189 14938 ft 406 kts 55°
2026-05-05 21:18 46.59219 6.75680 14941 ft 406 kts 56°
2026-05-05 21:18 46.60681 6.79156 14947 ft 407 kts 56°
2026-05-05 21:19 46.62155 6.82712 14916 ft 407 kts 57°
2026-05-05 21:19 46.63610 6.86224 14907 ft 405 kts 56°
2026-05-05 21:19 46.65079 6.89761 14913 ft 406 kts 56°
2026-05-05 21:19 46.66547 6.93292 14910 ft 407 kts 56°
2026-05-05 21:20 46.68013 6.96821 14911 ft 406 kts 56°
2026-05-05 21:20 46.69443 7.00376 14926 ft 404 kts 58°
2026-05-05 21:20 46.70811 7.03991 14910 ft 403 kts 59°
2026-05-05 21:20 46.72143 7.07543 14910 ft 402 kts 59°
2026-05-05 21:21 46.73499 7.11138 14911 ft 400 kts 59°
2026-05-05 21:21 46.74833 7.14663 14910 ft 398 kts 59°
2026-05-05 21:21 46.76187 7.18233 14910 ft 397 kts 59°
2026-05-05 21:21 46.77514 7.21732 14909 ft 396 kts 59°
2026-05-05 21:22 46.79086 7.25058 14974 ft 396 kts 48°
2026-05-05 21:22 46.80926 7.28068 14915 ft 393 kts 45°
2026-05-05 21:22 46.82777 7.31012 14910 ft 395 kts 46°
2026-05-05 21:22 46.84609 7.33989 14913 ft 394 kts 46°
2026-05-05 21:23 46.86419 7.36992 14911 ft 394 kts 47°
2026-05-05 21:23 46.88221 7.40018 14909 ft 394 kts 47°
2026-05-05 21:23 46.90011 7.43042 14908 ft 396 kts 47°
2026-05-05 21:23 46.91829 7.46123 14909 ft 398 kts 46°
2026-05-05 21:24 46.93632 7.49181 14909 ft 401 kts 46°
2026-05-05 21:24 46.95455 7.52279 14463 ft 401 kts 46°
2026-05-05 21:24 46.97286 7.55392 13858 ft 400 kts 46°
2026-05-05 21:24 46.99103 7.58485 13206 ft 400 kts 46°
2026-05-05 21:25 47.00891 7.61532 12571 ft 400 kts 46°
2026-05-05 21:25 47.02726 7.64662 11915 ft 400 kts 46°
2026-05-05 21:25 47.04525 7.67743 11188 ft 403 kts 48°
2026-05-05 21:25 47.06313 7.70821 10828 ft 387 kts 49°
2026-05-05 21:26 47.07965 7.73668 10930 ft 347 kts 48°
2026-05-05 21:26 47.09471 7.76262 10917 ft 318 kts 48°
2026-05-05 21:26 47.10886 7.78686 10707 ft 313 kts 48°
2026-05-05 21:26 47.12304 7.81086 10481 ft 310 kts 48°
2026-05-05 21:27 47.13719 7.83493 10223 ft 309 kts 48°
2026-05-05 21:27 47.15101 7.85858 9990 ft 308 kts 49°
2026-05-05 21:27 47.16482 7.88231 9765 ft 306 kts 48°
2026-05-05 21:27 47.17852 7.90632 9544 ft 303 kts 52°
2026-05-05 21:28 47.18847 7.93355 9307 ft 302 kts 69°
2026-05-05 21:28 47.19499 7.96284 9052 ft 301 kts 72°
2026-05-05 21:28 47.20205 7.99170 8828 ft 299 kts 69°
2026-05-05 21:28 47.20966 8.02014 8591 ft 298 kts 69°
2026-05-05 21:29 47.21727 8.04844 8351 ft 297 kts 68°
2026-05-05 21:29 47.22477 8.07623 7991 ft 293 kts 68°
2026-05-05 21:29 47.23237 8.10441 7743 ft 290 kts 69°
2026-05-05 21:29 47.23988 8.13223 7456 ft 290 kts 69°
2026-05-05 21:30 47.24731 8.15982 7225 ft 289 kts 69°
2026-05-05 21:30 47.25471 8.18727 7005 ft 287 kts 69°
2026-05-05 21:30 47.26197 8.21423 6779 ft 285 kts 69°
2026-05-05 21:30 47.26925 8.24131 6544 ft 283 kts 69°
2026-05-05 21:31 47.27648 8.26822 6314 ft 282 kts 69°
2026-05-05 21:31 47.28136 8.28642 6150 ft 278 kts 69°
2026-05-05 21:31 47.29082 8.32168 5735 ft 275 kts 69°
2026-05-05 21:31 47.29787 8.34802 5456 ft 276 kts 69°
2026-05-05 21:32 47.30485 8.37413 5231 ft 274 kts 69°
2026-05-05 21:32 47.31184 8.40029 5006 ft 272 kts 70°
2026-05-05 21:32 47.31864 8.42581 4990 ft 261 kts 69°
2026-05-05 21:32 47.32507 8.44991 4997 ft 250 kts 68°
2026-05-05 21:33 47.33131 8.47336 5002 ft 239 kts 68°
2026-05-05 21:33 47.33712 8.49520 5015 ft 221 kts 67°
2026-05-05 21:33 47.34255 8.51569 5024 ft 198 kts 66°
2026-05-05 21:33 47.34723 8.53336 4995 ft 175 kts 65°
2026-05-05 21:34 47.35173 8.55027 4998 ft 171 kts 65°
2026-05-05 21:34 47.35623 8.56717 5017 ft 174 kts 65°
2026-05-05 21:34 47.36062 8.58373 5006 ft 176 kts 64°
2026-05-05 21:34 47.36502 8.60035 4997 ft 178 kts 64°
2026-05-05 21:35 47.36936 8.61678 4989 ft 174 kts 64°
2026-05-05 21:35 47.37366 8.63303 4992 ft 168 kts 64°
2026-05-05 21:35 47.37798 8.64935 5003 ft 165 kts 64°
2026-05-05 21:35 47.38237 8.66602 5005 ft 167 kts 65°
2026-05-05 21:36 47.38668 8.68243 5017 ft 173 kts 65°
2026-05-05 21:36 47.39097 8.69875 4997 ft 173 kts 65°
2026-05-05 21:36 47.39530 8.71524 4999 ft 172 kts 65°
2026-05-05 21:36 47.39967 8.73183 5007 ft 175 kts 65°
2026-05-05 21:37 47.40406 8.74855 4996 ft 174 kts 65°
2026-05-05 21:37 47.40845 8.76527 4996 ft 172 kts 65°
2026-05-05 21:37 47.41275 8.78162 4996 ft 171 kts 65°
2026-05-05 21:37 47.41745 8.79748 5009 ft 165 kts 53°
2026-05-05 21:38 47.42534 8.80907 5041 ft 155 kts 27°
2026-05-05 21:38 47.43527 8.81111 5023 ft 147 kts 338°
2026-05-05 21:38 47.44184 8.80042 5035 ft 146 kts 284°
2026-05-05 21:38 47.44167 8.78521 5027 ft 149 kts 271°
2026-05-05 21:39 47.44215 8.76964 4995 ft 150 kts 277°
2026-05-05 21:39 47.44311 8.75494 4922 ft 139 kts 277°
2026-05-05 21:39 47.44393 8.74047 4555 ft 146 kts 276°
2026-05-05 21:39 47.44482 8.72524 4161 ft 151 kts 278°
2026-05-05 21:40 47.44623 8.71002 3866 ft 150 kts 279°
2026-05-05 21:40 47.44763 8.69439 3357 ft 161 kts 277°
2026-05-05 21:40 47.44886 8.67785 2987 ft 156 kts 277°
2026-05-05 21:40 47.44999 8.66260 2786 ft 146 kts 276°
2026-05-05 21:41 47.45103 8.64816 2582 ft 138 kts 276°
2026-05-05 21:41 47.45199 8.63413 2376 ft 137 kts 275°
2026-05-05 21:41 47.45296 8.62003 2162 ft 136 kts 276°
2026-05-05 21:41 47.45398 8.60636 1990 ft 134 kts 276°
2026-05-05 21:42 47.45501 8.59241 1784 ft 137 kts 275°
2026-05-05 21:42 47.45601 8.57839 1585 ft 138 kts 276°
2026-05-05 21:42 47.45703 8.56448 1440 ft 131 kts 276°
2026-05-05 21:42 47.45788 8.55257 1429 ft 96 kts 275°
2026-05-05 21:43 47.45841 8.54492 1429 ft 47 kts 276°
2026-05-05 21:43 47.45860 8.54236 1429 ft 15 kts 276°
2026-05-05 21:43 47.45872 8.54055 1429 ft 19 kts 276°
2026-05-05 21:43 47.45882 8.53878 1429 ft 14 kts 273°
2026-05-05 21:44 47.45855 8.53785 1429 ft 11 kts 222°
2026-05-05 21:44 47.45772 8.53755 1429 ft 14 kts 166°
2026-05-05 21:44 47.45708 8.53844 1429 ft 14 kts 111°
2026-05-05 21:44 47.45701 8.53876 1429 ft 0 kts 108°
2026-05-05 21:45 47.45700 8.53879 1429 ft 1 kts 108°
2026-05-05 21:45 47.45692 8.53915 1429 ft 5 kts 108°
2026-05-05 21:46 47.45676 8.53991 1429 ft 9 kts 108°
2026-05-05 21:46 47.45650 8.54106 1429 ft 13 kts 108°
2026-05-05 21:46 47.45616 8.54259 1429 ft 12 kts 108°
2026-05-05 21:46 47.45593 8.54361 1429 ft 12 kts 108°
2026-05-05 21:47 47.45562 8.54502 1429 ft 15 kts 108°
2026-05-05 21:47 47.45547 8.54573 1429 ft 8 kts 108°
2026-05-05 21:47 47.45525 8.54676 1429 ft 12 kts 108°
2026-05-05 21:47 47.45491 8.54750 1429 ft 7 kts 160°
2026-05-05 21:48 47.45434 8.54788 1429 ft 10 kts 154°
2026-05-05 21:48 47.45354 8.54844 1429 ft 14 kts 155°
2026-05-05 21:48 47.45251 8.54914 1429 ft 18 kts 156°
2026-05-05 21:48 47.45161 8.54966 1429 ft 11 kts 156°
2026-05-05 21:49 47.45076 8.55026 1429 ft 15 kts 155°
2026-05-05 21:49 47.44986 8.55088 1429 ft 7 kts 157°
2026-05-05 21:49 47.44951 8.55109 1429 ft 2 kts 168°
2026-05-05 21:49 47.44927 8.55098 1429 ft 5 kts 236°
2026-05-05 21:50 47.44906 8.55032 1429 ft 8 kts 242°
2026-05-05 21:50 47.44878 8.54946 1429 ft 2 kts 246°
2026-05-05 21:50 47.44878 8.54945 1429 ft 0 kts 245°
2026-05-05 21:53 47.44881 8.54958 1429 ft 2 kts 267°
2026-05-05 21:54 47.44878 8.54980 1429 ft 2 kts 297°
2026-05-05 21:54 47.44869 8.54997 1429 ft 2 kts 326°
2026-05-05 21:54 47.44856 8.55006 1429 ft 2 kts 337°
2026-05-05 21:54 47.44842 8.55015 1429 ft 2 kts 334°
2026-05-05 21:55 47.44838 8.55018 1429 ft 0 kts 334°